| time (UTC) | temp F | wind direction | speed knots | gust knots | rain 1hr in | rain 24hr in | rain mn in | humidity % | barometer mb |
| 20260508193005 | 81 | 109 | 1.7 | 6.1 | 0.00 | 0.00 | 0.00 | 61 | 1010.6 |
| 20260508191503 | 80 | 255 | 2.6 | 7.0 | 0.00 | 0.00 | 0.00 | 62 | 1010.9 |
| 20260508190003 | 81 | 235 | 2.6 | 6.1 | 0.00 | 0.00 | 0.00 | 60 | 1011.0 |
| 20260508184608 | 80 | 118 | 1.7 | 6.1 | 0.00 | 0.00 | 0.00 | 60 | 1010.9 |
| 20260508183100 | 80 | 110 | 0.9 | 4.3 | 0.00 | 0.00 | 0.00 | 62 | 1011.2 |
| 20260508181558 | 79 | 206 | 2.6 | 6.1 | 0.00 | 0.00 | 0.00 | 61 | 1011.6 |
| 20260508180050 | 78 | 146 | 1.7 | 7.0 | 0.00 | 0.00 | 0.00 | 63 | 1011.8 |
| 20260508174549 | 77 | 238 | 0.9 | 4.3 | 0.00 | 0.00 | 0.00 | 62 | 1012.1 |
| 20260508173044 | 77 | 203 | 1.7 | 3.5 | 0.00 | 0.00 | 0.00 | 65 | 1012.3 |
| 20260508171544 | 74 | 117 | 0.9 | 4.3 | 0.00 | 0.00 | 0.00 | 66 | 1012.8 |
| 20260508170036 | 74 | 92 | 0.9 | 5.2 | 0.00 | 0.00 | 0.00 | 67 | 1013.1 |
| 20260508164533 | 72 | 132 | 1.7 | 6.1 | 0.00 | 0.00 | 0.00 | 68 | 1013.6 |
| 20260508163036 | 72 | 236 | 1.7 | 6.1 | 0.00 | 0.00 | 0.00 | 68 | 1014.0 |
| 20260508161546 | 72 | 205 | 0.9 | 5.2 | 0.00 | 0.00 | 0.00 | 68 | 1014.2 |
| 20260508160030 | 72 | 178 | 1.7 | 5.2 | 0.00 | 0.00 | 0.00 | 67 | 1014.1 |
| 20260508154530 | 71 | 244 | 0.9 | 4.3 | 0.00 | 0.00 | 0.00 | 68 | 1014.4 |
| 20260508153049 | 72 | 232 | 2.6 | 7.0 | 0.00 | 0.00 | 0.00 | 67 | 1014.4 |
| 20260508151529 | 72 | 243 | 1.7 | 5.2 | 0.00 | 0.00 | 0.00 | 67 | 1014.3 |
| 20260508150027 | 72 | 116 | 0.9 | 4.3 | 0.00 | 0.00 | 0.00 | 67 | 1014.3 |
| 20260508144525 | 71 | 141 | 0.9 | 5.2 | 0.00 | 0.00 | 0.00 | 68 | 1014.3 |
| 20260508143025 | 70 | 98 | 0.9 | 4.3 | 0.00 | 0.00 | 0.00 | 69 | 1014.5 |
| 20260508141519 | 69 | 174 | 0.9 | 6.1 | 0.00 | 0.00 | 0.00 | 71 | 1014.6 |
| 20260508140016 | 68 | 165 | 0.9 | 3.5 | 0.00 | 0.00 | 0.00 | 74 | 1014.7 |
| 20260508134516 | 66 | 274 | 1.7 | 6.1 | 0.00 | 0.00 | 0.00 | 76 | 1014.6 |
| 20260508133009 | 64 | 127 | 0.9 | 2.6 | 0.00 | 0.00 | 0.00 | 80 | 1014.6 |
| 20260508131506 | 63 | 156 | 0.0 | 2.6 | 0.00 | 0.00 | 0.00 | 83 | 1014.8 |
| 20260508130004 | 62 | 203 | 0.0 | 0.9 | 0.00 | 0.00 | 0.00 | 84 | 1014.8 |
| 20260508124500 | 61 | 141 | 0.0 | 0.9 | 0.00 | 0.00 | 0.00 | 84 | 1015.0 |
| 20260508123100 | 61 | 137 | 0.0 | 2.6 | 0.00 | 0.00 | 0.00 | 85 | 1014.9 |
| 20260508121600 | 60 | 137 | 0.0 | 1.7 | 0.00 | 0.00 | 0.00 | 87 | 1014.8 |
| 20260508120113 | 59 | 131 | 0.0 | 0.9 | 0.00 | 0.00 | 0.00 | 88 | 1014.8 |
| 20260508114604 | 59 | 120 | 0.0 | 0.9 | 0.00 | 0.00 | 0.00 | 87 | 1014.8 |
| 20260508113103 | 59 | 129 | 0.0 | 0.9 | 0.00 | 0.00 | 0.00 | 87 | 1015.2 |
| 20260508111556 | 60 | 69 | 0.0 | 0.9 | 0.00 | 0.00 | 0.00 | 87 | 1015.6 |
| 20260508110104 | 59 | 249 | 0.0 | 1.7 | 0.00 | 0.00 | 0.00 | 87 | 1015.9 |
| 20260508104559 | 59 | 255 | 0.0 | 0.9 | 0.00 | 0.00 | 0.00 | 86 | 1014.5 |
| 20260508103059 | 59 | 91 | 0.0 | 1.7 | 0.00 | 0.00 | 0.00 | 86 | 1014.1 |
| 20260508101555 | 60 | 104 | 0.0 | 1.7 | 0.00 | 0.00 | 0.00 | 86 | 1013.9 |
| 20260508100111 | 60 | 207 | 0.0 | 0.9 | 0.00 | 0.00 | 0.00 | 85 | 1014.1 |
| 20260508094552 | 60 | 220 | 0.0 | 0.9 | 0.00 | 0.00 | 0.00 | 85 | 1014.1 |
| 20260508093050 | 61 | 113 | 0.9 | 3.5 | 0.00 | 0.00 | 0.00 | 85 | 1014.3 |
| 20260508091607 | 61 | 111 | 0.0 | 3.5 | 0.00 | 0.00 | 0.00 | 87 | 1014.3 |
| 20260508090050 | 61 | 118 | 0.9 | 3.5 | 0.00 | 0.00 | 0.00 | 88 | 1014.1 |
| 20260508084544 | 60 | 171 | 0.0 | 0.0 | 0.00 | 0.00 | 0.00 | 88 | 1015.0 |
| 20260508083043 | 60 | 233 | 0.0 | 0.0 | 0.00 | 0.00 | 0.00 | 88 | 1015.2 |
| 20260508081559 | 60 | 243 | 0.0 | 0.0 | 0.00 | 0.00 | 0.00 | 87 | 1015.6 |
| 20260508080042 | 60 | 231 | 0.0 | 0.9 | 0.00 | 0.00 | 0.00 | 87 | 1015.6 |
| 20260508074541 | 60 | 115 | 0.0 | 0.0 | 0.00 | 0.00 | 0.00 | 86 | 1015.2 |
| 20260508073045 | 60 | 115 | 0.0 | 0.0 | 0.00 | 0.00 | 0.00 | 87 | 1015.1 |
| 20260508071539 | 60 | 115 | 0.0 | 0.9 | 0.00 | 0.00 | 0.00 | 86 | 1015.2 |
| 20260508070036 | 60 | 115 | 0.0 | 0.9 | 0.00 | 0.00 | 0.00 | 85 | 1015.6 |
| 20260508064537 | 60 | 96 | 0.0 | 0.9 | 0.00 | 0.00 | 0.00 | 85 | 1015.7 |
| 20260508063035 | 60 | 193 | 0.0 | 0.0 | 0.00 | 0.00 | 0.00 | 84 | 1015.8 |
| 20260508061535 | 60 | 200 | 0.0 | 0.0 | 0.00 | 0.00 | 0.00 | 84 | 1015.8 |
| 20260508060041 | 60 | 200 | 0.0 | 0.0 | 0.00 | 0.00 | 0.00 | 85 | 1015.8 |
| 20260508054607 | 60 | 203 | 0.0 | 0.0 | 0.00 | 0.00 | 0.00 | 85 | 1015.9 |
| 20260508053044 | 60 | 203 | 0.0 | 0.0 | 0.00 | 0.00 | 0.00 | 86 | 1015.8 |
| 20260508051528 | 60 | 203 | 0.0 | 0.0 | 0.00 | 0.00 | 0.00 | 85 | 1015.9 |
| 20260508050026 | 60 | 202 | 0.0 | 0.0 | 0.00 | 0.00 | 0.00 | 85 | 1016.0 |
| 20260508044526 | 60 | 203 | 0.0 | 0.0 | 0.00 | 0.00 | 0.00 | 83 | 1016.0 |
| 20260508043033 | 61 | 203 | 0.0 | 0.0 | 0.00 | 0.00 | 0.00 | 83 | 1015.9 |
| 20260508041524 | 61 | 203 | 0.0 | 0.0 | 0.00 | 0.00 | 0.00 | 82 | 1015.9 |
| 20260508040031 | 61 | 202 | 0.0 | 0.0 | 0.00 | 0.00 | 0.00 | 81 | 1015.7 |
| 20260508034534 | 61 | 203 | 0.0 | 0.0 | 0.00 | 0.00 | 0.00 | 80 | 1015.9 |
| 20260508033030 | 62 | 202 | 0.0 | 0.0 | 0.00 | 0.00 | 0.00 | 79 | 1015.7 |
| 20260508031523 | 62 | 203 | 0.0 | 0.0 | 0.00 | 0.00 | 0.00 | 78 | 1015.7 |
| 20260508030022 | 63 | 203 | 0.0 | 0.0 | 0.00 | 0.00 | 0.00 | 77 | 1015.5 |
| 20260508024524 | 63 | 202 | 0.0 | 0.0 | 0.00 | 0.00 | 0.00 | 77 | 1015.7 |
| 20260508023021 | 63 | 202 | 0.0 | 0.0 | 0.00 | 0.00 | 0.00 | 76 | 1015.5 |
| 20260508021521 | 64 | 204 | 0.0 | 0.0 | 0.00 | 0.00 | 0.00 | 75 | 1015.2 |
| 20260508020020 | 64 | 204 | 0.0 | 0.0 | 0.00 | 0.00 | 0.00 | 74 | 1015.1 |
| 20260508014519 | 65 | 206 | 0.0 | 0.9 | 0.00 | 0.00 | 0.00 | 73 | 1015.3 |
| 20260508013018 | 65 | 165 | 0.0 | 0.0 | 0.00 | 0.00 | 0.00 | 73 | 1015.1 |
| 20260508011518 | 66 | 200 | 0.0 | 1.7 | 0.00 | 0.00 | 0.00 | 72 | 1015.1 |
| 20260508010027 | 66 | 236 | 0.0 | 0.9 | 0.00 | 0.00 | 0.00 | 71 | 1015.2 |
| 20260508004524 | 67 | 120 | 0.0 | 1.7 | 0.00 | 0.00 | 0.00 | 70 | 1015.3 |
| 20260508003015 | 67 | 128 | 0.0 | 2.6 | 0.00 | 0.00 | 0.00 | 69 | 1015.1 |
| 20260508001514 | 68 | 167 | 0.9 | 5.2 | 0.00 | 0.00 | 0.00 | 68 | 1015.3 |
| 20260508000014 | 68 | 104 | 0.9 | 4.3 | 0.00 | 0.00 | 0.00 | 67 | 1015.2 |
| 20260507234513 | 68 | 227 | 0.0 | 3.5 | 0.00 | 0.00 | 0.00 | 66 | 1015.3 |
| 20260507233013 | 69 | 200 | 0.9 | 3.5 | 0.00 | 0.00 | 0.00 | 66 | 1015.3 |
| 20260507231512 | 69 | 234 | 0.9 | 3.5 | 0.00 | 0.00 | 0.00 | 66 | 1015.4 |
| 20260507230010 | 70 | 105 | 0.9 | 4.3 | 0.00 | 0.00 | 0.00 | 65 | 1015.5 |
| 20260507224513 | 70 | 101 | 1.7 | 3.5 | 0.00 | 0.00 | 0.00 | 64 | 1015.4 |
| 20260507223009 | 71 | 145 | 0.0 | 4.3 | 0.00 | 0.00 | 0.00 | 64 | 1015.5 |
| 20260507221510 | 72 | 127 | 0.9 | 5.2 | 0.00 | 0.00 | 0.00 | 61 | 1015.6 |
| 20260507220007 | 75 | 165 | 0.9 | 3.5 | 0.00 | 0.00 | 0.00 | 58 | 1015.5 |
| 20260507214506 | 75 | 345 | 0.0 | 1.7 | 0.00 | 0.00 | 0.00 | 53 | 1015.7 |
| 20260507213005 | 76 | 98 | 0.0 | 1.7 | 0.00 | 0.00 | 0.00 | 52 | 1015.9 |
| 20260507211504 | 76 | 14 | 0.0 | 1.7 | 0.00 | 0.00 | 0.00 | 51 | 1015.9 |
| 20260507210003 | 77 | 13 | 0.9 | 2.6 | 0.00 | 0.00 | 0.00 | 49 | 1015.8 |
| 20260507204501 | 77 | 140 | 0.0 | 1.7 | 0.00 | 0.00 | 0.00 | 51 | 1015.8 |
| 20260507203103 | 77 | 93 | 0.0 | 2.6 | 0.00 | 0.00 | 0.00 | 52 | 1016.3 |
| 20260507201556 | 76 | 181 | 0.9 | 3.5 | 0.00 | 0.00 | 0.00 | 51 | 1016.4 |
| 20260507200054 | 76 | 321 | 0.9 | 2.6 | 0.00 | 0.00 | 0.00 | 52 | 1016.5 |
| 20260507194553 | 75 | 261 | 0.0 | 2.6 | 0.00 | 0.00 | 0.00 | 53 | 1016.8 |